Flag for U.S.A. Weather past 2 weeks in Rancho Cucamonga, California, U.S.A.

Now
85 °F

Sunny.


Feels Like: 83 °F
Forecast: 60 / 81 °F
Wind: 10 mph from Northwest

Location: Ontario International Airport

Current Time: Sep 3, 2015 at 4:23:02 PM

Latest Report: Sep 3, 2015 at 3:53 PM


Visibility: 10 mi

Pressure: 29.77 "Hg

Humidity: 30%

Dew point: 50 °F

Location of Rancho CucamongaLocation

Historic Weather in Rancho Cucamonga — Graph

°F

Rancho Cucamonga temperature yesterday

Maximum temperature yesterday: 86 °F (at 1:53 PM)
Minimum temperature yesterday: 66 °F (at 10:53 PM)
Average temperature yesterday: 73 °F

Past Weeks' High & Low Weather Summary

 TemperatureHumidityPressure
High105 °F (Aug 28, 2:53 PM)87% (Aug 22, 1:53 AM)29.97 "Hg (Aug 22, 1:53 AM)
Low62 °F (Sep 3, 3:53 AM)14% (Aug 28, 2:53 PM)29.75 "Hg (Aug 28, 4:53 PM)
Average79 °F55%29.86 "Hg
* Reported Aug 19 2:53 PM — Sep 3 2:53 PM, Rancho Cucamonga, Weather by CustomWeather, © 2015

Note: Actual official high and low records may vary slightly from our data, if they occured in-between our weather recording intervals... More about our weather records

Advertising

Rancho Cucamonga weather history for previous 24 hours

 ConditionsComfort  
Time TempWeatherWind HumidityBarometerVisibility
2:53 PM
Thu, Sep 3
83 °FSunny.9 mph33%29.80 "Hg10 mi
1:53 PM79 °FSunny.6 mph42%29.83 "Hg10 mi
12:53 PM75 °FPassing clouds.3 mph52%29.86 "Hg10 mi
11:53 AM72 °FPassing clouds.5 mph59%29.89 "Hg9 mi
10:53 AM68 °FOvercast.3 mph68%29.92 "Hg6 mi
9:53 AM66 °FOvercast.6 mph75%29.93 "Hg5 mi
8:53 AM65 °FOvercast.6 mph78%29.92 "Hg5 mi
7:53 AM65 °FOvercast.3 mph78%29.90 "Hg5 mi
6:53 AM64 °FOvercast.5 mph81%29.88 "Hg6 mi
5:53 AM63 °FPassing clouds.7 mph84%29.88 "Hg10 mi
4:53 AM62 °FClear.5 mph86%29.88 "Hg10 mi
3:53 AM62 °FPassing clouds.3 mph86%29.88 "Hg10 mi
2:53 AM64 °FPassing clouds.3 mph81%29.88 "Hg10 mi
1:53 AM64 °FPassing clouds.5 mph81%29.88 "Hg10 mi
12:53 AM64 °FPassing clouds.7 mph81%29.90 "Hg10 mi
11:53 PM
Wed, Sep 2
66 °FPassing clouds.6 mph75%29.91 "Hg10 mi
10:53 PM66 °FPassing clouds.9 mph75%29.91 "Hg10 mi
9:53 PM68 °FPassing clouds.12 mph70%29.90 "Hg10 mi
8:53 PM70 °FPassing clouds.10 mph66%29.88 "Hg10 mi
7:53 PM73 °FScattered clouds.13 mph59%29.85 "Hg10 mi
6:53 PM77 °FScattered clouds.12 mph50%29.83 "Hg10 mi
5:53 PM81 °FScattered clouds.15 mph44%29.83 "Hg10 mi
4:53 PM83 °FScattered clouds.15 mph40%29.83 "Hg10 mi
Weather by CustomWeather, © 2015

See weather overviewHow to use our weather pages